STARLINK-35294, 65755

Orbit data source: Space-Track

STARLINK-35294, 65755 is a payload satellite owned by SpaceX/Seattle (US) in LEO that was launched on Thu, 25 Sep 2025 UTC via an FALCON 9 launch vehicle from the Air Force Eastern Test Range (AFETR). Payload-class satellites include a variety of spacecraft equipped with specific instruments for various scientific and technological missions. These include communications satellites like Starlink; space stations such as the ISS; scientific satellites like the Hubble; Earth observation satellites from companies like Planet Labs, Umbra, and HawkEye 360; GPS; miniature CubeSats for education and research; and military/defense satellites.

Loading next visibility...
Identifier
65755, 2025-216X
Orbit
LEO
Country
Flag of USUS
Related business
Manufacturer
SpaceX/Seattle
Mission
Operational Commercial Communications
Bus & Motor
STARLINK V2MO, Unknown motor
Mass
575 kg wet, ~530 kg dry
Launch date (UTC)
2025-09-25 (9 months ago)
Launch vehicle
FALCON 9
Launch site
Air Force Eastern Test Range (AFETR)
Object type
Payload
Rocket body
Debris
Shape & HBR
Box + 2 Pan, 17.7 m
Radar Cross Section
36.964 m², Large (>1 m²)

Expand to show TLE details & history
Last TLE update: 11 hours ago

TLE from 11 hours ago
0 STARLINK-35294
1 65755U 25216X   26171.40313383  .00012609  00000-0  43688-3 0  9996
2 65755  53.1574 215.4988 0000992  75.4524 284.6587 15.30218789 42278
Epoch: 2026-06-20T09:40Z
TLE epoch observation values (Epoch: 2026-06-20T09:40:30.762Z)
Latitude
-0.00002°
Longitude
161.75235°
Altitude
475.886 km
Speed
7.629 km/s
True Right ascension
14h 21m 59s
True Declination
0° 00' 00"
Sunlit
Object was in full shadow at epoch
Visualization orbit readout
Latitude
Unknown
Longitude
Unknown
Altitude
Unknown
Speed
Unknown
Apparent Right ascension
Unknown
Apparent Declination
Unknown
Sunlit
N/A
Visualization observer readout
Local Sidereal Time
07:15:49
Azimuth
Unknown
Elevation
Unknown
Doppler factor
Unknown
Orbital elements
Apogee altitude
476.096 km
Perigee altitude
474.736 km
Semi-major axis
6,853.553 km
Eccentricity
0.0001
Inclination
53.1574°
RAAN
215.4988°
Arg. of periapsis
75.4524°
True anomaly
284.6477°
Mean anomaly
284.6587°
Eccentric anomaly
284.6532°
Mean motion
3.82534 °/min
Orbital period
94.11 mins
BSTAR
0.00043688
Loading maneuver chart data...
Computing Atmospheric mass density...
Loading historical data...
Loading historical data...
Loading historical data...
Loading historical data...
Loading historical data...
Loading historical data...
Loading historical data...

Documentation

Showing up to 5 results
|